Time,TemperatureF,DewpointF,PressureIn,WindDirection,WindDirectionDegrees,WindSpeedMPH,WindSpeedGustMPH,Humidity,HourlyPrecipIn,Conditions,Clouds,dailyrainin,SoftwareType,DateUTC
2013-07-13 00:12:00,76.5,73.3,29.85,NE,45,0.0,-999.0,90,-99.99,,,0.00,Acu-Link.com,2013-07-13 05:12:00,
2013-07-13 00:27:00,75.9,72.8,29.85,SW,225,0.0,-999.0,90,-99.99,,,0.00,Acu-Link.com,2013-07-13 05:27:00,
2013-07-13 00:42:00,75.0,72.9,29.85,West,270,0.0,-999.0,93,-99.99,,,0.00,Acu-Link.com,2013-07-13 05:42:00,
2013-07-13 00:57:00,74.7,72.5,29.85,NNW,337,2.7,-999.0,93,-99.99,,,0.00,Acu-Link.com,2013-07-13 05:57:00,
2013-07-13 01:13:00,74.7,72.5,29.85,North,0,1.6,-999.0,93,-99.99,,,0.00,Acu-Link.com,2013-07-13 06:13:00,
2013-07-13 01:28:00,74.7,71.9,29.84,ESE,112,0.0,-999.0,91,-99.99,,,0.00,Acu-Link.com,2013-07-13 06:28:00,
2013-07-13 01:43:00,74.3,69.8,29.85,NNE,22,1.6,-999.0,86,-99.99,,,0.00,Acu-Link.com,2013-07-13 06:43:00,
2013-07-13 01:58:00,74.1,71.6,29.85,WNW,292,0.0,-999.0,92,-99.99,,,0.00,Acu-Link.com,2013-07-13 06:58:00,
2013-07-13 02:14:00,73.2,70.8,29.85,North,0,2.2,-999.0,92,-99.99,,,0.00,Acu-Link.com,2013-07-13 07:14:00,
2013-07-13 02:29:00,73.8,70.6,29.85,NNE,22,3.1,-999.0,90,-99.99,,,0.00,Acu-Link.com,2013-07-13 07:29:00,
2013-07-13 02:44:00,73.9,68.8,29.85,NNE,22,2.2,-999.0,84,-99.99,,,0.00,Acu-Link.com,2013-07-13 07:44:00,
2013-07-13 03:00:00,74.1,69.0,29.85,ESE,112,0.0,-999.0,84,-99.99,,,0.00,Acu-Link.com,2013-07-13 08:00:00,
2013-07-13 03:15:00,73.6,69.1,29.85,South,180,1.6,-999.0,86,-99.99,,,0.00,Acu-Link.com,2013-07-13 08:15:00,
2013-07-13 03:30:00,72.5,69.7,29.86,SSW,202,2.2,-999.0,91,-99.99,,,0.00,Acu-Link.com,2013-07-13 08:30:00,
2013-07-13 03:45:00,72.1,69.7,29.86,West,270,0.0,-999.0,92,-99.99,,,0.00,Acu-Link.com,2013-07-13 08:45:00,
2013-07-13 04:01:00,71.6,69.1,29.85,NNE,22,1.6,-999.0,92,-99.99,,,0.00,Acu-Link.com,2013-07-13 09:01:00,
2013-07-13 04:16:00,70.7,68.6,29.85,NW,315,0.0,-999.0,93,-99.99,,,0.00,Acu-Link.com,2013-07-13 09:16:00,
2013-07-13 04:31:00,70.3,68.8,29.85,NNE,22,2.7,-999.0,95,-99.99,,,0.00,Acu-Link.com,2013-07-13 09:31:00,
2013-07-13 04:46:00,70.3,69.1,29.85,North,0,3.1,-999.0,96,-99.99,,,0.00,Acu-Link.com,2013-07-13 09:46:00,
2013-07-13 05:01:00,70.0,68.8,29.85,NW,315,1.6,-999.0,96,-99.99,,,0.00,Acu-Link.com,2013-07-13 10:01:00,
2013-07-13 05:16:00,69.8,68.6,29.84,WNW,292,0.0,-999.0,96,-99.99,,,0.00,Acu-Link.com,2013-07-13 10:16:00,
2013-07-13 05:31:00,69.4,67.9,29.85,SW,225,0.0,-999.0,95,-99.99,,,0.00,Acu-Link.com,2013-07-13 10:31:00,
2013-07-13 05:47:00,68.9,67.4,29.85,North,0,0.0,-999.0,95,-99.99,,,0.00,Acu-Link.com,2013-07-13 10:47:00,
2013-07-13 06:02:00,68.9,68.0,29.86,NE,45,2.2,-999.0,97,-99.99,,,0.00,Acu-Link.com,2013-07-13 11:02:00,
2013-07-13 06:17:00,68.9,68.0,29.86,NNE,22,2.2,-999.0,97,-99.99,,,0.00,Acu-Link.com,2013-07-13 11:17:00,
2013-07-13 06:33:00,68.9,67.7,29.86,North,0,3.1,-999.0,96,-99.99,,,0.00,Acu-Link.com,2013-07-13 11:33:00,
2013-07-13 06:48:00,69.1,67.9,29.86,NNW,337,2.7,-999.0,96,-99.99,,,0.00,Acu-Link.com,2013-07-13 11:48:00,
2013-07-13 07:03:00,69.6,67.5,29.87,NNW,337,3.1,-999.0,93,-99.99,,,0.00,Acu-Link.com,2013-07-13 12:03:00,
2013-07-13 07:18:00,70.3,67.6,29.87,NW,315,2.7,-999.0,91,-99.99,,,0.00,Acu-Link.com,2013-07-13 12:18:00,
2013-07-13 07:34:00,71.2,67.8,29.87,North,0,5.1,-999.0,89,-99.99,,,0.00,Acu-Link.com,2013-07-13 12:34:00,
2013-07-13 07:49:00,71.6,68.2,29.87,NNW,337,3.1,-999.0,89,-99.99,,,0.00,Acu-Link.com,2013-07-13 12:49:00,
2013-07-13 08:04:00,72.9,68.8,29.88,NNE,22,5.8,-999.0,87,-99.99,,,0.00,Acu-Link.com,2013-07-13 13:04:00,
2013-07-13 08:19:00,74.7,69.5,29.88,North,0,4.7,-999.0,84,-99.99,,,0.00,Acu-Link.com,2013-07-13 13:19:00,
2013-07-13 08:35:00,77.5,70.5,29.88,North,0,5.8,-999.0,79,-99.99,,,0.00,Acu-Link.com,2013-07-13 13:35:00,
2013-07-13 08:50:00,79.5,70.5,29.89,NW,315,6.3,-999.0,74,-99.99,,,0.00,Acu-Link.com,2013-07-13 13:50:00,
2013-07-13 09:05:00,82.4,69.9,29.89,West,270,3.8,-999.0,66,-99.99,,,0.00,Acu-Link.com,2013-07-13 14:05:00,
2013-07-13 09:20:00,85.1,69.6,29.89,NE,45,2.7,-999.0,60,-99.99,,,0.00,Acu-Link.com,2013-07-13 14:20:00,
2013-07-13 09:36:00,86.0,71.0,29.89,NNW,337,5.8,-999.0,61,-99.99,,,0.00,Acu-Link.com,2013-07-13 14:36:00,
2013-07-13 09:51:00,86.9,70.8,29.89,NE,45,1.6,-999.0,59,-99.99,,,0.00,Acu-Link.com,2013-07-13 14:51:00,
2013-07-13 10:06:00,89.2,70.9,29.89,West,270,3.8,-999.0,55,-99.99,,,0.00,Acu-Link.com,2013-07-13 15:06:00,
2013-07-13 10:21:00,88.5,70.8,29.89,North,0,3.8,-999.0,56,-99.99,,,0.00,Acu-Link.com,2013-07-13 15:21:00,
2013-07-13 10:37:00,88.2,69.4,29.89,NW,315,4.7,-999.0,54,-99.99,,,0.00,Acu-Link.com,2013-07-13 15:37:00,
2013-07-13 10:52:00,89.8,70.3,29.88,NW,315,6.7,-999.0,53,-99.99,,,0.00,Acu-Link.com,2013-07-13 15:52:00,
2013-07-13 11:07:00,90.0,69.9,29.88,West,270,4.3,-999.0,52,-99.99,,,0.00,Acu-Link.com,2013-07-13 16:07:00,
2013-07-13 11:22:00,91.0,69.8,29.88,North,0,3.8,-999.0,50,-99.99,,,0.00,Acu-Link.com,2013-07-13 16:22:00,
2013-07-13 11:37:00,92.5,69.3,29.88,WNW,292,2.7,-999.0,47,-99.99,,,0.00,Acu-Link.com,2013-07-13 16:37:00,
2013-07-13 11:53:00,94.5,66.4,29.88,ENE,67,3.1,-999.0,40,-99.99,,,0.00,Acu-Link.com,2013-07-13 16:53:00,
2013-07-13 12:08:00,95.2,64.0,29.88,NW,315,5.1,-999.0,36,-99.99,,,0.00,Acu-Link.com,2013-07-13 17:08:00,
2013-07-13 12:23:00,94.6,63.5,29.88,NW,315,3.8,-999.0,36,-99.99,,,0.00,Acu-Link.com,2013-07-13 17:23:00,
2013-07-13 12:38:00,96.1,64.8,29.87,NNW,337,5.8,-999.0,36,-99.99,,,0.00,Acu-Link.com,2013-07-13 17:38:00,
2013-07-13 12:54:00,95.4,66.4,29.86,NNW,337,2.7,-999.0,39,-99.99,,,0.00,Acu-Link.com,2013-07-13 17:54:00,
2013-07-13 13:09:00,95.5,64.3,29.87,NNW,337,4.7,-999.0,36,-99.99,,,0.00,Acu-Link.com,2013-07-13 18:09:00,
2013-07-13 13:24:00,95.2,64.0,29.88,North,0,4.7,-999.0,36,-99.99,,,0.00,Acu-Link.com,2013-07-13 18:24:00,
2013-07-13 13:39:00,96.1,63.9,29.86,NNW,337,5.1,-999.0,35,-99.99,,,0.00,Acu-Link.com,2013-07-13 18:39:00,
2013-07-13 13:54:00,97.2,64.1,29.86,North,0,5.1,-999.0,34,-99.99,,,0.00,Acu-Link.com,2013-07-13 18:54:00,
2013-07-13 14:10:00,95.2,64.7,29.85,NNE,22,5.1,-999.0,37,-99.99,,,0.00,Acu-Link.com,2013-07-13 19:10:00,
2013-07-13 14:25:00,95.4,61.6,29.84,NNE,22,4.3,-999.0,33,-99.99,,,0.00,Acu-Link.com,2013-07-13 19:25:00,
2013-07-13 14:40:00,96.4,61.7,29.83,NNE,22,8.3,-999.0,32,-99.99,,,0.00,Acu-Link.com,2013-07-13 19:40:00,
2013-07-13 14:56:00,94.8,61.2,29.83,NNE,22,4.3,-999.0,33,-99.99,,,0.00,Acu-Link.com,2013-07-13 19:56:00,
2013-07-13 15:11:00,94.8,59.4,29.83,North,0,7.4,-999.0,31,-99.99,,,0.00,Acu-Link.com,2013-07-13 20:11:00,
2013-07-13 15:26:00,95.7,60.2,29.83,NNE,22,2.7,-999.0,31,-99.99,,,0.00,Acu-Link.com,2013-07-13 20:26:00,
2013-07-13 15:41:00,98.2,61.4,29.82,NNW,337,4.7,-999.0,30,-99.99,,,0.00,Acu-Link.com,2013-07-13 20:41:00,
2013-07-13 15:57:00,98.8,60.9,29.82,ESE,112,2.2,-999.0,29,-99.99,,,0.00,Acu-Link.com,2013-07-13 20:57:00,
2013-07-13 16:12:00,100.2,62.2,29.81,NNE,22,3.8,-999.0,29,-99.99,,,0.00,Acu-Link.com,2013-07-13 21:12:00,
2013-07-13 16:27:00,97.7,61.9,29.81,North,0,3.1,-999.0,31,-99.99,,,0.00,Acu-Link.com,2013-07-13 21:27:00,
2013-07-13 16:42:00,98.6,61.7,29.80,ESE,112,1.6,-999.0,30,-99.99,,,0.00,Acu-Link.com,2013-07-13 21:42:00,
2013-07-13 16:58:00,97.3,63.4,29.80,SSE,157,1.6,-999.0,33,-99.99,,,0.00,Acu-Link.com,2013-07-13 21:58:00,
2013-07-13 17:13:00,95.7,64.4,29.81,SSW,202,0.0,-999.0,36,-99.99,,,0.00,Acu-Link.com,2013-07-13 22:13:00,
2013-07-13 17:28:00,94.8,67.4,29.81,South,180,1.6,-999.0,41,-99.99,,,0.00,Acu-Link.com,2013-07-13 22:28:00,
2013-07-13 17:44:00,96.1,66.3,29.80,SE,135,0.0,-999.0,38,-99.99,,,0.00,Acu-Link.com,2013-07-13 22:44:00,
2013-07-13 17:59:00,94.3,66.9,29.80,ESE,112,1.6,-999.0,41,-99.99,,,0.00,Acu-Link.com,2013-07-13 22:59:00,
2013-07-13 18:14:00,95.2,69.1,29.81,NE,45,0.0,-999.0,43,-99.99,,,0.00,Acu-Link.com,2013-07-13 23:14:00,
2013-07-13 18:30:00,94.5,70.4,29.81,SW,225,0.0,-999.0,46,-99.99,,,0.00,Acu-Link.com,2013-07-13 23:30:00,
2013-07-13 18:45:00,93.2,69.3,29.80,SW,225,1.1,-999.0,46,-99.99,,,0.00,Acu-Link.com,2013-07-13 23:45:00,
2013-07-13 19:00:00,92.1,68.9,29.81,SSE,157,0.0,-999.0,47,-99.99,,,0.00,Acu-Link.com,2013-07-14 00:00:00,
2013-07-13 19:15:00,91.8,69.2,29.81,ESE,112,1.1,-999.0,48,-99.99,,,0.00,Acu-Link.com,2013-07-14 00:15:00,
2013-07-13 19:30:00,90.5,69.9,29.81,SE,135,0.0,-999.0,51,-99.99,,,0.00,Acu-Link.com,2013-07-14 00:30:00,
2013-07-13 19:45:00,88.3,69.5,29.83,NNE,22,0.0,-999.0,54,-99.99,,,0.00,Acu-Link.com,2013-07-14 00:45:00,
2013-07-13 20:00:00,85.3,68.8,29.83,NE,45,1.1,-999.0,58,-99.99,,,0.00,Acu-Link.com,2013-07-14 01:00:00,
2013-07-13 20:16:00,82.8,69.8,29.82,NNE,22,2.2,-999.0,65,-99.99,,,0.00,Acu-Link.com,2013-07-14 01:16:00,
2013-07-13 20:31:00,80.8,70.5,29.82,SSW,202,0.0,-999.0,71,-99.99,,,0.00,Acu-Link.com,2013-07-14 01:31:00,
2013-07-13 20:46:00,79.3,71.5,29.83,West,270,0.0,-999.0,77,-99.99,,,0.00,Acu-Link.com,2013-07-14 01:46:00,
2013-07-13 21:01:00,77.5,71.2,29.83,WNW,292,0.0,-999.0,81,-99.99,,,0.00,Acu-Link.com,2013-07-14 02:01:00,
2013-07-13 21:17:00,76.3,71.1,29.83,NNW,337,2.7,-999.0,84,-99.99,,,0.00,Acu-Link.com,2013-07-14 02:17:00,
2013-07-13 21:32:00,75.6,71.1,29.83,WNW,292,0.0,-999.0,86,-99.99,,,0.00,Acu-Link.com,2013-07-14 02:32:00,
2013-07-13 21:47:00,74.8,71.0,29.84,NE,45,1.1,-999.0,88,-99.99,,,0.00,Acu-Link.com,2013-07-14 02:47:00,
2013-07-13 22:02:00,74.3,70.2,29.85,ENE,67,2.2,-999.0,87,-99.99,,,0.00,Acu-Link.com,2013-07-14 03:02:00,
2013-07-13 22:17:00,74.7,70.5,29.85,NW,315,1.6,-999.0,87,-99.99,,,0.00,Acu-Link.com,2013-07-14 03:17:00,
2013-07-13 22:33:00,74.3,70.2,29.85,North,0,0.0,-999.0,87,-99.99,,,0.00,Acu-Link.com,2013-07-14 03:33:00,
2013-07-13 22:48:00,73.6,70.1,29.86,NNE,22,0.0,-999.0,89,-99.99,,,0.00,Acu-Link.com,2013-07-14 03:48:00,
2013-07-13 23:03:00,73.6,69.8,29.85,South,180,0.0,-999.0,88,-99.99,,,0.00,Acu-Link.com,2013-07-14 04:03:00,
2013-07-13 23:18:00,73.2,70.1,29.85,WNW,292,0.0,-999.0,90,-99.99,,,0.00,Acu-Link.com,2013-07-14 04:18:00,
2013-07-13 23:33:00,72.5,69.7,29.85,WNW,292,0.0,-999.0,91,-99.99,,,0.00,Acu-Link.com,2013-07-14 04:33:00,
2013-07-13 23:48:00,72.3,69.9,29.85,West,270,0.0,-999.0,92,-99.99,,,0.00,Acu-Link.com,2013-07-14 04:48:00,